#timestamp,LO_Frequency,Hit,StdDev 
1459562415.4,286046999.7,N
1459562435.2,286047000.5,N
1459562455.0,286046998.2,N
1459562455.9,286046998.2,N
1459562475.8,286046999.0,N
1459562495.6,286046999.8,N
1459562515.4,286047002.7,N
1459562535.3,286046999.9,N
1459562555.1,286047000.6,N
1459562556.0,286047000.6,N
1459562575.8,286047001.7,N
1459562595.6,286047001.7,N
1459562615.5,286046998.8,N
1459562635.3,286047000.5,N
1459562655.1,286047001.9,N
1459562675.9,286047001.3,N
1459562695.7,286047003.4,N
1459562715.5,286047003.9,N
1459562735.4,286047001.4,N
1459562755.2,286046999.7,N
1459562775.0,286047001.2,N
1459562775.9,286047001.2,N
1459562795.8,286046998.8,N
1459562815.6,286046997.1,N
1459562835.4,286046997.9,N
1459562855.3,286046995.8,N
1459562875.1,286046999.2,N
1459562876.0,286046999.2,N
1459562895.8,286046995.2,N
1459562915.7,286046996.2,N
1459562935.5,286046995.6,N
1459562955.3,286046999.2,N
1459562975.1,286046999.1,N
1459562995.9,286046996.8,N
1459563015.7,286046999.2,N
1459563035.5,286046999.1,N
1459563055.4,286046999.4,N
1459563075.2,286046996.8,N
1459563095.0,286047001.1,N
1459563095.9,286047001.1,N
1459563115.8,286047000.7,N
1459563135.6,286047002.7,N
1459563155.4,286047000.7,N
1459563175.3,286047004.3,N
1459563195.1,286047000.1,N
1459563196.0,286047000.1,N
1459563215.8,286047000.9,N
1459563235.7,286047002.1,N
1459563255.5,286047002.7,N
1459563275.3,286047001.7,N
1459563295.2,286047006.0,N
1459563315.9,286047004.7,N
1459563335.7,286047005.6,N
1459563355.5,286047005.7,N
1459563375.4,286047003.9,N
1459563395.2,286047004.4,N
1459563415.0,286047005.4,N
1459563415.9,286047005.4,N
1459563435.8,286047007.2,N
1459563455.6,286047007.4,N
1459563475.4,286047005.8,N
1459563495.3,286047007.5,N
1459563515.1,286047005.5,N
1459563516.0,286047005.5,N
1459563535.8,286047006.0,N
1459563555.7,286047002.9,N
1459563575.5,286047005.5,N
1459563595.3,286047005.7,N
1459563615.2,286047003.6,N
1459563635.9,286047001.8,N
1459563655.7,286046998.1,N
1459563675.6,286047000.7,N
1459563695.4,286047001.0,N
1459563715.2,286047002.7,N
1459563735.0,286047000.5,N
1459563736.0,286047000.5,N
1459563755.8,286047001.2,N
1459563775.6,286047005.3,N
1459563795.4,286047004.4,N
1459563815.3,286047001.6,N
1459563835.1,286047003.8,N
1459563855.8,286047004.0,N
1459563875.7,286046999.7,N
1459563895.5,286047000.7,N
1459563915.3,286047001.1,N
1459563935.2,286047002.4,N
1459563955.9,286047000.3,N
1459563975.7,286046998.8,N
1459563995.6,286046998.8,N
1459564015.4,286047001.2,N
1459564035.2,286046998.2,N
1459564055.1,286046997.5,N
1459564056.0,286046997.5,N
1459564075.8,286046997.4,N
1459564095.6,286046997.7,N
1459564115.5,286046998.0,N
1459564135.3,286046997.9,N
1459564155.1,286046999.5,N
1459564175.8,286046997.9,N
1459564195.7,286046994.5,N
1459564215.5,286046993.7,N
1459564235.3,286046993.9,N
1459564255.2,286046995.5,N
1459564275.9,286046992.9,N
1459564295.7,286046993.8,N
1459564315.6,286046993.6,N
1459564335.4,286046992.8,N
1459564355.2,286046994.4,N
1459564375.1,286046992.6,N
1459564376.0,286046992.6,N
1459564395.8,286046995.4,N
1459564415.6,286046995.0,N
1459564435.5,286046995.8,N
1459564455.3,286046996.4,N
1459564475.1,286046998.8,N
1459564495.8,286046998.2,N
1459564515.7,286047000.3,N
1459564535.5,286046999.7,N
1459564555.3,286046999.5,N
1459564575.2,286046994.9,N
1459564595.0,286046996.5,N
1459564595.9,286046996.5,N
1459564615.7,286046999.5,N
1459564635.6,286046995.4,N
1459564655.4,286046995.4,N
1459564675.2,286046995.7,N
1459564695.1,286046995.8,N
1459564696.0,286046995.8,N
1459564715.8,286046996.0,N
1459564735.6,286046994.3,N
1459564755.5,286046993.5,Y
1459564775.3,286046998.3,P
1459564795.1,286047000.7,N
1459564815.9,286047002.0,N
1459564835.7,286047003.0,N
1459564855.5,286047003.0,N
1459564875.4,286047004.7,N
1459564895.2,286047006.0,N
1459564915.0,286047004.8,N
1459564915.9,286047004.8,N
1459564935.8,286047005.6,N
1459564955.6,286047001.9,N
1459564975.4,286047001.2,N
1459564995.2,286046998.8,N
1459565015.1,286046998.6,N
1459565016.0,286046998.6,N
1459565035.8,286046998.6,N
1459565055.6,286046996.6,N
1459565075.5,286046997.3,N
1459565095.3,286046995.6,N
1459565115.1,286046996.1,N
1459565135.9,286046995.8,N
1459565155.7,286046992.6,N
1459565175.5,286046991.7,N
1459565195.4,286046992.3,N
1459565215.2,286046994.3,N
1459565235.0,286046994.7,N
1459565235.9,286046994.7,N
1459565255.8,286046991.9,N
1459565275.6,286046993.5,N
1459565295.4,286046995.6,N
1459565315.2,286046993.7,N
1459565335.1,286046995.2,N
1459565336.0,286046995.2,N
1459565355.8,286046994.9,N
1459565375.6,286046997.4,N
1459565395.5,286046995.0,N
1459565415.3,286046996.0,N
1459565435.1,286046997.1,N
1459565455.9,286046997.1,N
1459565475.7,286046994.9,N
1459565495.5,286046997.7,N
1459565515.4,286046997.3,N
1459565535.2,286046998.8,N
1459565555.0,286047000.8,N
1459565555.9,286047000.8,N
1459565575.8,286047002.6,N
1459565595.6,286047001.6,N
1459565615.4,286047001.9,N
1459565635.3,286047002.5,N
1459565655.1,286047003.3,N
1459565656.0,286047003.3,N
1459565675.8,286047003.9,N
1459565695.7,286047003.7,N
1459565715.5,286047004.2,N
1459565735.3,286047003.9,N
1459565755.2,286047004.0,N
1459565775.9,286047003.8,N
1459565795.7,286047004.2,N
1459565815.6,286047007.9,N
1459565835.4,286047004.6,N
1459565855.2,286047006.4,N
1459565875.0,286047006.6,N
1459565875.9,286047006.6,N
1459565895.8,286047006.9,N
1459565915.6,286047004.2,N
1459565935.4,286047005.0,N
1459565955.3,286047002.9,N
1459565975.1,286047004.9,N
1459565995.8,286047006.6,N
